OPTUS B3

Last updated on Wed Jan 25 2017 00:16:55 GMT+0000 (Coordinated Universal Time)

1 23227U 94055A 17023.86020453 -.00000195 00000-0 00000-0 0 9996 2 23227 7.1678 51.2683 0007414 262.2187 117.2266 0.98699209 82058
UTC large
Height (km)
Speed (km/s)
/
Latitude / Longitude
Inclination (degrees)
Orbital Period (minutes)
Azimuth
Elevation
Range (km)
Doppler Factor

Next 0 passes for location: London (51.5072 / 0.1276)

Sorry there are no passes over London.